Location: Gajan
(43.0218°N, 1.1244°E)
Time: 03:13:02
(UTC+00:00)

X-37B - Pass Details

Date: 28 September 2021
Orbit: 342 x 346 km, 45.0° (Epoch: 22 October)

Event Time Altitude Azimuth Distance (km) Brightness Sun altitude
Exits shadow 04:02:33 50° 36° (NE) 445 1.1 -20.1°
Drops below altitude 10° 04:04:59 10° 74° (ENE) 1,295 4.5 -19.7°
Sets 04:07:01 0° 79° (ENE) 2,137 6.0 -19.3°
